#timestamp,LO_Frequency,Hit,StdDev 
1591470015.8,286047000.6,N
1591470035.6,286047001.0,N
1591470055.4,286047002.3,N
1591470075.3,286047002.7,N
1591470095.1,286047000.0,N
1591470115.8,286047000.1,N
1591470135.7,286047000.4,N
1591470155.5,286046999.7,N
1591470175.4,286047002.3,N
1591470195.2,286047000.3,N
1591470215.0,286047002.8,N
1591470215.9,286047002.8,N
1591470235.8,286046999.7,N
1591470255.6,286047001.1,N
1591470275.4,286047002.8,N
1591470295.3,286046999.9,N
1591470315.1,286047001.0,N
1591470335.9,286047002.8,N
1591470355.7,286046999.8,N
1591470375.5,286047001.5,N
1591470395.4,286047002.8,N
1591470415.2,286047002.4,N
1591470435.0,286047000.0,N
1591470435.9,286047000.0,N
1591470455.8,286046998.1,N
1591470475.6,286046998.5,N
1591470495.5,286046998.6,N
1591470515.3,286047000.6,N
1591470535.1,286046999.8,N
1591470555.9,286047000.7,N
1591470575.7,286047002.5,N
1591470595.5,286046999.8,N
1591470615.4,286047000.9,N
1591470635.2,286047002.2,N
1591470655.0,286047000.5,N
1591470656.0,286047000.5,N
1591470675.8,286047002.3,N
1591470695.6,286046999.8,N
1591470715.5,286047000.1,N
1591470735.3,286047002.4,N
1591470755.1,286047001.8,N
1591470775.9,286047003.9,N
1591470795.7,286047001.7,N
1591470815.5,286047001.4,N
1591470835.4,286047002.4,N
1591470855.2,286047002.1,N
1591470875.1,286047002.6,N
1591470876.0,286047002.6,N
1591470895.8,286047003.9,N
1591470915.6,286047004.0,N
1591470935.5,286047003.0,N
1591470955.3,286047003.1,N
1591470975.1,286047004.2,N
1591470995.9,286047003.4,N
1591471015.7,286047003.7,N
1591471035.6,286047004.1,N
1591471055.4,286047004.4,N
1591471075.2,286047001.9,N
1591471095.1,286047002.1,N
1591471096.0,286047002.1,N
1591471115.8,286047004.4,Y
1591471135.6,286047000.6,P
1591471155.5,286047002.4,N
1591471175.3,286047002.3,N
1591471195.2,286047001.9,N
1591471215.9,286047002.6,Y
1591471235.7,286047000.8,P
1591471255.6,286046998.1,P
1591471275.4,286046999.9,N
1591471295.2,286047000.5,N
1591471315.1,286047000.2,N
1591471316.0,286047000.2,N
1591471335.8,286047000.4,N
1591471355.7,286047000.5,N
1591471375.5,286047002.7,N
1591471395.3,286047000.5,N
1591471415.2,286047001.2,N
1591471435.0,286047001.2,N
1591471435.9,286047001.2,N
1591471455.8,286046999.4,N
1591471475.6,286047000.5,N
1591471495.4,286047000.2,N
1591471515.3,286047000.1,N
1591471535.1,286047000.0,N
1591471555.8,286046999.7,N
1591471575.7,286047002.6,N
1591471595.5,286047002.8,N
1591471615.4,286047000.2,N
1591471635.2,286047000.8,N
1591471655.0,286047000.1,N
1591471655.9,286047000.1,N
1591471675.8,286047000.1,N
1591471695.6,286047002.7,N
1591471715.4,286047000.1,N
1591471735.3,286047001.0,N
1591471755.1,286047000.3,N
1591471775.9,286047000.3,N
1591471795.7,286047000.3,N
1591471815.5,286047000.2,N
1591471835.4,286047000.0,N
1591471855.2,286047000.3,N
1591471875.0,286047000.5,N
1591471875.9,286047000.5,N
1591471895.8,286046998.1,N
1591471915.6,286047000.3,N
1591471935.5,286047000.5,N
1591471955.3,286046999.7,N
1591471975.1,286047000.3,N
1591471995.9,286047000.0,N
1591472015.7,286047000.6,N
1591472035.5,286046999.8,N
1591472055.4,286047002.8,Y
1591472075.2,286047001.0,P
1591472095.1,286047000.1,N
1591472096.0,286047000.1,N
1591472115.8,286046998.1,Y
1591472135.6,286046998.8,P
1591472155.5,286047000.7,N
1591472175.3,286046999.2,N
1591472195.2,286046998.8,N
1591472215.9,286046998.9,N
1591472235.7,286046998.9,N
1591472255.6,286046998.8,N
1591472275.4,286046997.1,Y
1591472295.2,286046997.7,P
1591472315.1,286046995.0,P
1591472316.0,286046995.0,N
1591472335.8,286046997.9,N
1591472355.6,286046997.4,N
1591472375.5,286046997.3,N
1591472395.3,286046996.5,N
1591472415.2,286046996.9,N
1591472435.9,286046996.6,N
1591472455.7,286046998.6,N
1591472475.6,286046997.1,N
1591472495.4,286046997.6,N
1591472515.2,286046997.1,N
1591472535.1,286046997.1,N
1591472536.0,286046997.1,N
1591472555.8,286046997.1,N
1591472575.7,286046999.1,N
1591472595.5,286046996.5,Y
1591472615.3,286047001.0,P
1591472635.2,286047000.3,N
1591472655.0,286047000.9,N
1591472655.9,286047000.9,N
1591472675.7,286047000.9,N
1591472695.6,286046999.9,N
1591472715.4,286046999.7,N
1591472735.3,286047000.2,N
1591472755.1,286046999.9,N
1591472756.0,286046999.9,N
1591472775.8,286047002.4,N
1591472795.7,286046999.7,N
1591472815.5,286047002.5,N
1591472835.3,286047002.1,N
1591472855.2,286047002.1,N
1591472875.0,286047002.0,N
1591472875.9,286047002.0,N
1591472895.8,286047002.7,N
1591472915.6,286047002.6,N
1591472935.4,286047002.3,N
1591472955.3,286047001.7,N
1591472975.1,286047003.9,N
1591472995.8,286047004.0,N
1591473015.7,286047002.0,N
1591473035.5,286047002.1,N
1591473055.4,286047003.7,N
1591473075.2,286047001.7,N
1591473095.0,286047001.7,N
1591473095.9,286047001.7,N
1591473115.8,286047001.3,N
1591473135.6,286047002.0,N
1591473155.4,286047002.8,N
1591473175.3,286047002.0,N
1591473195.1,286047001.5,N
1591473215.9,286047001.3,N
1591473235.7,286047004.4,Y
1591473255.5,286046999.8,P
1591473275.4,286046998.5,N
1591473295.2,286046998.8,N
1591473315.0,286046998.3,N
1591473315.9,286046998.3,N
1591473335.8,286046999.9,N
1591473355.6,286046999.9,N
1591473375.5,286047000.5,N
1591473395.3,286047000.4,N
1591473415.1,286046998.1,N
1591473435.9,286047000.7,N
1591473455.7,286047000.3,N
1591473475.5,286047000.2,N
1591473495.4,286047000.2,N
1591473515.2,286046998.9,N
1591473535.1,286046998.9,N
1591473536.0,286046998.9,N
1591473555.8,286046999.1,N
1591473575.6,286046999.0,N
1591473595.5,286046997.0,Y
